Date String (YYYY-MM-DD hh:mm:ss) UTC,Instrument flags,absolute air pressure of the measurement (hPa),sample flow rate (lpm),inlet stack bypass flow (lpm),air temperature of the measurement (°C),ambient temperature measured by the external sensor (°C),aerosol sample conditioner tube jacket temperature (°C),OPC LED temperature (°C),internal box temperature (°C),relative humidity of the measurement (%),span deviation,mass concentration of particles derived from Lorenz-Mie calculation of OPC scattering (μg/m³),mass concentration of particles derived from Lorenz-Mie calculation of OPC scattering (μg/m³),mass concentration of particles derived from Lorenz-Mie calculation of OPC scattering (μg/m³)
DateTimeUTC,F1_M11,P_M11,Q1_M11,Q2_M11,T1_M11,T2_M11,T3_M11,T4_M11,T5_M11,U1_M11,ZSPAN_M11,X2_M11,X0_M11,X1_M11
2023-10-21 17:00:00,SystemResetWarning,0829.4,5.00,000.00,028.6,025.6,000.0,037.1,030.1,12.1,0000.0,0002.03,0009.88,0001.13
2023-10-21 17:01:00,SystemResetWarning,0829.4,5.01,000.00,028.6,026.0,000.0,037.1,030.2,12.1,0000.0,0001.99,0009.67,0001.13
2023-10-21 17:02:00,SystemResetWarning,0829.4,5.00,000.00,028.6,026.3,000.0,037.1,030.2,12.0,0000.0,0002.05,0009.21,0001.13
2023-10-21 17:03:00,SystemResetWarning,0829.4,5.00,000.00,028.6,026.7,000.0,037.1,030.3,12.2,0000.0,0002.04,0009.03,0001.13
2023-10-21 17:04:00,SystemResetWarning,0829.4,5.00,000.00,028.6,026.9,000.0,037.1,030.4,12.3,0000.0,0002.00,0009.54,0001.13
2023-10-21 17:05:00,SystemResetWarning,0829.3,5.00,000.00,028.7,027.1,000.0,037.1,030.4,12.3,0000.0,0001.90,0008.89,0001.14
2023-10-21 17:06:00,SystemResetWarning,0829.4,5.00,000.00,028.7,027.3,000.0,037.1,030.5,12.2,0000.0,0001.88,0008.30,0001.14
2023-10-21 17:07:00,SystemResetWarning,0829.3,5.00,000.00,028.7,027.5,000.0,037.2,030.5,12.1,0000.0,0001.91,0008.20,0001.15
2023-10-21 17:08:00,SystemResetWarning,0829.3,5.00,000.00,028.8,027.6,000.0,037.2,030.6,12.5,0000.0,0001.89,0007.86,0001.15
2023-10-21 17:09:00,SystemResetWarning,0829.3,4.98,000.00,028.8,026.6,000.0,037.1,030.6,12.6,0000.0,0001.93,0006.70,0001.16
2023-10-21 17:10:00,SystemResetWarning,0829.3,5.01,000.00,028.7,024.9,000.0,037.1,030.3,12.9,0000.0,0001.93,0007.29,0001.17
2023-10-21 17:11:00,SystemResetWarning,0829.4,5.02,000.00,028.7,024.7,000.0,037.0,030.2,12.8,0000.0,0001.92,0007.27,0001.17
2023-10-21 17:12:00,SystemResetWarning,0829.3,5.00,000.00,028.6,025.0,000.0,037.0,030.1,12.8,0000.0,0001.93,0007.50,0001.17
2023-10-21 17:13:00,SystemResetWarning,0829.4,5.00,000.00,028.5,025.4,000.0,037.0,030.1,12.7,0000.0,0001.93,0007.68,0001.17
2023-10-21 17:14:00,SystemResetWarning,0829.4,5.00,000.00,028.5,025.8,000.0,037.0,030.1,12.9,0000.0,0001.93,0007.93,0001.18
2023-10-21 17:15:00,SystemResetWarning,0829.4,4.99,000.00,028.5,026.2,000.0,037.0,030.1,12.9,0000.0,0002.02,0008.02,0001.19
2023-10-21 17:16:00,SystemResetWarning,0829.3,5.00,000.00,028.5,026.5,000.0,037.0,030.2,12.7,0000.0,0002.14,0008.25,0001.23
2023-10-21 17:17:00,SystemResetWarning,0829.3,5.00,000.00,028.6,026.8,000.0,037.0,030.3,12.5,0000.0,0002.22,0008.30,0001.27
2023-10-21 17:18:00,SystemResetWarning,0829.3,5.00,000.00,028.6,027.0,000.0,037.1,030.3,12.4,0000.0,0002.28,0008.40,0001.32
2023-10-21 17:19:00,SystemResetWarning,0829.3,5.00,000.00,028.6,027.2,000.0,037.1,030.4,12.6,0000.0,0002.34,0008.62,0001.38
2023-10-21 17:20:00,SystemResetWarning,0829.3,5.00,000.00,028.7,027.4,000.0,037.1,030.4,12.8,0000.0,0002.38,0008.44,0001.45
2023-10-21 17:21:00,SystemResetWarning,0829.3,5.00,000.00,028.7,027.5,000.0,037.1,030.5,12.8,0000.0,0002.44,0008.15,0001.51
2023-10-21 17:22:00,SystemResetWarning,0829.3,4.99,000.00,028.7,027.6,000.0,037.1,030.6,12.8,0000.0,0002.48,0008.36,0001.57
2023-10-21 17:23:00,SystemResetWarning,0829.3,4.99,000.00,028.8,026.4,000.0,037.1,030.5,12.7,0000.0,0002.56,0008.66,0001.63
2023-10-21 17:24:00,SystemResetWarning,0829.3,5.00,000.00,028.7,024.8,000.0,037.0,030.3,12.3,0000.0,0002.62,0008.51,0001.69
2023-10-21 17:25:00,SystemResetWarning,0829.3,5.01,000.00,028.6,024.7,000.0,036.9,030.2,12.5,0000.0,0002.73,0008.20,0001.75
2023-10-21 17:26:00,SystemResetWarning,0829.3,5.00,000.00,028.5,025.0,000.0,036.9,030.0,12.5,0000.0,0002.72,0007.91,0001.79
2023-10-21 17:27:00,SystemResetWarning,0829.4,5.00,000.00,028.5,025.4,000.0,037.0,030.0,12.6,0000.0,0002.72,0008.09,0001.84
2023-10-21 17:28:00,SystemResetWarning,0829.3,5.01,000.00,028.5,025.8,000.0,037.0,030.1,12.9,0000.0,0002.71,0008.37,0001.88
2023-10-21 17:29:00,SystemResetWarning,0829.4,4.99,000.00,028.5,026.2,000.0,037.0,030.1,12.9,0000.0,0002.79,0008.94,0001.90
2023-10-21 17:30:00,SystemResetWarning,0829.3,5.00,000.00,028.5,026.5,000.0,037.0,030.2,12.7,0000.0,0002.86,0008.93,0001.90
2023-10-21 17:31:00,SystemResetWarning,0829.4,5.00,000.00,028.5,026.7,000.0,037.0,030.2,12.6,0000.0,0002.84,0009.10,0001.86
2023-10-21 17:32:00,SystemResetWarning,0829.4,5.00,000.00,028.5,027.0,000.0,037.0,030.3,12.6,0000.0,0002.86,0010.02,0001.87
2023-10-21 17:33:00,SystemResetWarning,0829.4,5.00,000.00,028.6,027.2,000.0,037.0,030.4,12.6,0000.0,0002.88,0009.90,0001.87
2023-10-21 17:34:00,SystemResetWarning,0829.3,5.00,000.00,028.6,027.3,000.0,037.0,030.4,12.7,0000.0,0002.95,0009.76,0001.88
2023-10-21 17:35:00,SystemResetWarning,0829.4,5.00,000.00,028.7,027.5,000.0,037.0,030.5,12.8,0000.0,0003.02,0010.54,0001.90
2023-10-21 17:36:00,SystemResetWarning,0829.3,4.98,000.00,028.7,026.8,000.0,037.0,030.5,12.7,0000.0,0003.04,0011.63,0001.92
2023-10-21 17:37:00,SystemResetWarning,0829.4,5.00,000.00,028.6,025.0,000.0,037.0,030.3,12.6,0000.0,0003.02,0011.58,0001.95
2023-10-21 17:38:00,SystemResetWarning,0829.4,5.01,000.00,028.6,024.5,000.0,036.9,030.1,12.8,0000.0,0002.98,0011.24,0001.94
2023-10-21 17:39:00,SystemResetWarning,0829.3,5.01,000.00,028.5,024.8,000.0,036.9,030.0,13.0,0000.0,0003.07,0011.26,0001.95
2023-10-21 17:40:00,SystemResetWarning,0829.3,5.00,000.00,028.4,025.2,000.0,036.9,029.9,13.0,0000.0,0003.05,0010.75,0001.98
2023-10-21 17:41:00,SystemResetWarning,0829.3,5.00,000.00,028.4,025.6,000.0,036.9,030.0,13.0,0000.0,0003.01,0011.22,0002.00
2023-10-21 17:42:00,SystemResetWarning,0829.3,5.00,000.00,028.4,026.0,000.0,036.9,030.0,13.0,0000.0,0003.07,0011.38,0002.05
2023-10-21 17:43:00,SystemResetWarning,0829.3,5.00,000.00,028.4,026.3,000.0,036.9,030.1,12.9,0000.0,0003.11,0010.71,0002.07
2023-10-21 17:44:00,SystemResetWarning,0829.3,5.01,000.00,028.4,026.6,000.0,036.9,030.2,13.0,0000.0,0003.13,0010.45,0002.08
2023-10-21 17:45:00,SystemResetWarning,0829.3,5.01,000.00,028.5,026.9,000.0,036.9,030.2,12.9,0000.0,0003.09,0009.93,0002.08
2023-10-21 17:46:00,SystemResetWarning,0829.3,5.00,000.00,028.5,027.1,000.0,036.9,030.3,13.0,0000.0,0003.09,0009.54,0002.08
2023-10-21 17:47:00,SystemResetWarning,0829.3,5.00,000.00,028.6,027.3,000.0,037.0,030.3,13.1,0000.0,0003.05,0008.33,0002.08
2023-10-21 17:48:00,SystemResetWarning,0829.3,5.00,000.00,028.6,027.4,000.0,037.0,030.4,13.0,0000.0,0003.06,0007.85,0002.07
2023-10-21 17:49:00,SystemResetWarning,0829.2,5.00,000.00,028.6,027.6,000.0,037.0,030.5,13.0,0000.0,0003.08,0008.19,0002.05
2023-10-21 17:50:00,SystemResetWarning,0829.2,4.98,000.00,028.7,026.6,000.0,037.0,030.5,12.7,0000.0,0003.06,0008.33,0002.03
2023-10-21 17:51:00,SystemResetWarning,0829.1,5.01,000.00,028.6,024.9,000.0,036.9,030.2,12.7,0000.0,0003.03,0008.36,0002.00
2023-10-21 17:52:00,SystemResetWarning,0829.2,5.01,000.00,028.5,024.6,000.0,036.8,030.1,12.8,0000.0,0003.05,0008.00,0001.97
2023-10-21 17:53:00,SystemResetWarning,0829.1,5.01,000.00,028.5,024.9,000.0,036.8,030.0,12.9,0000.0,0002.99,0007.54,0001.94
2023-10-21 17:54:00,SystemResetWarning,0829.1,5.00,000.00,028.4,025.3,000.0,036.9,029.9,12.8,0000.0,0002.92,0007.21,0001.90
2023-10-21 17:55:00,SystemResetWarning,0829.1,5.01,000.00,028.4,025.7,000.0,036.9,030.0,12.6,0000.0,0002.91,0007.21,0001.88
2023-10-21 17:56:00,SystemResetWarning,0829.1,4.99,000.00,028.4,026.0,000.0,036.9,030.0,12.7,0000.0,0002.90,0007.34,0001.85
2023-10-21 17:57:00,SystemResetWarning,0829.1,5.00,000.00,028.4,026.4,000.0,036.9,030.1,12.7,0000.0,0002.83,0007.14,0001.80
2023-10-21 17:58:00,SystemResetWarning,0829.1,5.00,000.00,028.4,026.6,000.0,036.9,030.1,12.7,0000.0,0002.77,0008.12,0001.75
2023-10-21 17:59:00,SystemResetWarning,0829.1,5.00,000.00,028.5,026.9,000.0,036.9,030.2,12.3,0000.0,0002.71,0008.52,0001.70
